Overview Statistics Trail Chart Weather Telemetry Raw packets
 

This is the latest recevied weather packets stored in our database for station/object W8RSN-13. If no packets are shown the sender has not sent any weather packets the latest 10 day(s).

<< 66 67 68 69 70 71 72 >>
Time Temp. Humidity Pressure Rain* Wind** Luminosity Snow
1788218666 31.67° C 33% 1013.3 hPa - - - -
1788218365 31.67° C 36% 1013.4 hPa - - - -
1788218064 31.11° C 34% 1013.4 hPa - - - -
1788217763 31.11° C 37% 1013.4 hPa - - - -
1788217462 31.67° C 36% 1013.4 hPa - - - -
1788217161 31.67° C 38% 1013.2 hPa - - - -
1788216860 31.67° C 35% 1013.4 hPa - - - -
1788216559 31.67° C 36% 1013.3 hPa - - - -
1788216258 31.67° C 37% 1013.5 hPa - - - -
1788215958 32.22° C 38% 1013.9 hPa - - - -
1788215658 31.67° C 38% 1013.6 hPa - - - -
1788215356 32.22° C 36% 1013.4 hPa - - - -
1788215075 32.22° C 37% 1013.7 hPa - - - -
1788214774 32.78° C 35% 1013.8 hPa - - - -
1788214473 32.78° C 36% 1013.6 hPa - - - -
1788214172 32.78° C 33% 1013.8 hPa - - - -
1788213871 32.22° C 36% 1013.9 hPa - - - -
1788213570 32.78° C 38% 1013.9 hPa - - - -
1788213269 32.22° C 39% 1014 hPa - - - -
1788212969 32.22° C 40% 1014.2 hPa - - - -
1788212668 31.67° C 43% 1014 hPa - - - -
1788212367 31.67° C 41% 1014.2 hPa - - - -
1788212066 31.11° C 43% 1014.3 hPa - - - -
1788211765 31.11° C 43% 1014.3 hPa - - - -
1788211464 31.67° C 42% 1014.5 hPa - - - -

* Rain since midnight (hover to see other rain measurements)
** Current wind speed in m/s (hover to see current wind gust speed)